Regional Weather Roundup
Issued by NWS Newport/Morehead, NC

Current Version | Previous Version | Text Only | Print | Product List | Glossary Off
Versions: 1 2 3 4 5 6 7 8 9 10 11 12 13 14 15 16 17 18 19 20 21 22 23 24 25 26 27 28 29 30 31 32 33 34 35 36 37 38 39 40 41 42 43 44 45 46 47 48 49 50
000 ASUS42 KMHX 192210 RWRMHX WEATHER ROUNDUP FOR EASTERN NORTH CAROLINA NATIONAL WEATHER SERVICE NEWPORT/MOREHEAD CITY NC 500 PM EST FRI DEC 19 2014 NOTE: "FAIR" INDICATES FEW OR NO CLOUDS BELOW 12,000 FEET WITH NO SIGNIFICANT WEATHER AND/OR OBSTRUCTIONS TO VISIBILITY NCZ015>017-031-032-045>047-102-103-192300- NORTH COAST CITY SKY/WX TMP DP RH WIND PRES REMARKS EDENTON PTCLDY 43 32 66 CALM 30.15S ELIZABETH CITY PTCLDY 46 29 51 NE6 30.15S KITTY HAWK CLEAR 40 32 71 N3 30.14S MANTEO CLEAR 40 32 71 N5 30.16S $$ NCZ045>047-081-094-103-104-192300- CENTRAL COAST CITY SKY/WX TMP DP RH WIND PRES REMARKS FRISCO CLEAR 42 34 73 NE3 30.15R SWANQUARTER N/A 46 N/A N/A N1 30.12S $$ NCZ095-097-098-100-101-192300- SOUTHERN COAST CITY SKY/WX TMP DP RH WIND PRES REMARKS BEAUFORT CLEAR 47 33 58 NE6 30.14R CEDAR ISLAND N/A 46 N/A N/A NW5 30.18S JACKSONVILLE CLEAR 49 31 49 N7 30.13R PINEY ISLAND CLEAR 48 33 56 N5 30.14S WILMINGTON CLEAR 52 30 43 N5 30.13R $$ NCZ011>013-027>030-043-044-078>080-089-090>093-098-192300- COASTAL PLAIN CITY SKY/WX TMP DP RH WIND PRES REMARKS AHOSKIE PTCLDY 40 30 66 CALM 30.17R CLINTON PTCLDY 51 33 51 CALM 30.14R ELIZABETHTOWN CLEAR 52 32 45 CALM 30.13R GOLDSBORO MOCLDY 47 35 62 CALM 30.13R GREENVILLE MOCLDY 45 32 61 CALM 30.16S HAVELOCK CLEAR 48 33 56 E6 30.15R KENANSVILLE PTCLDY 48 31 50 CALM 30.14S KINSTON MOCLDY 45 32 61 CALM 30.15S NEW BERN CLEAR 49 30 48 N5 30.15S RICHLANDS CLEAR 48 28 46 N3 30.15R ROCKY MOUNT MOCLDY 43 33 68 CALM 30.15S WASHINGTON MOCLDY 45 31 57 CALM 30.15S WHITEVILLE CLEAR 53 31 43 CALM 30.13R $$ AMZ130-135-150-152-154-156-158-170-250-252-270-ANZ085-086-088-633-658-670-192300- MARINE OBSERVATIONS STATION/POSITION TIME TEMP WIND PRES WAVE SWELL AIR SEA DIR/SP/G HT/PER HT/PER (UTC) (F) (DEG/KT/KT) (MB) (FT/S) (FT/S) CHESAPEAKE LIGHT 2100 40 350/ 11/ 13 1021.6 64 E VA BEACH 2200 42 54 330/ 17/ 23 1020.5 4/ 5 DUCK 2200 42 47 10/ 8/ 9 1020.3 2 E DUCK 2200 48 N/A 4/ 5 10 NE DUCK 2200 51 N/A 3/ 5 OREGON INLET 2200 41 50 340/ 5/ 7 1021.1 13E OREGON INLT 2200 53 N/A 3/ 5 HATTERAS CG 2200 44 53 40/ 5/ 8 1021.2 DIAMOND BUOY 2200 48 1021.1 3/ 7 17 S OCRACOKE NOT AVBL CAPE LOOKOUT 2100 50 40/ 7/ 9 1020.2 BEAUFORT LAB 2200 49 53 50/ 5/ 9 1019.4 30 SE NEW RIVER 2200 52 63 30/ 6/ 8 1020.7 1/ 8 2/ 8 5 SE WRIGHTSVLE NOT AVBL 225 S CAPE HAT 2145 66 72 360/ 8/ 12 1018.8 3/10 3/10 41 SE CHARLESTON 2200 62 69 70/ 2/ 4 1019.3 2/10 2/10 $$

USA.gov is the U.S. government's official web portal to all federal, state and local government web resources and services.